User: anonymous   Login
Location: The Jewett Observatory
(46.7288°N, 117.1525°W)
Time: 13:38:13
(UTC-07:00)
Language:

Cosmos 1633 - Orbit

View from above orbital plane
View from above orbital plane
View from above satellite
View from above satellite

Ground track
Ground track

The orbit data is extracted from the following two-line orbital elements,

1 15592U 85020A   15141.66879350  .00005204  00000-0  21433-3 0  9990
2 15592 082.5392 356.0462 0014676 333.4431 086.5117 15.23785350648739
Epoch (UTC): 21 May 2015 16:03:03
Eccentricity: 0.0014676
inclination: 82.5392°
perigee height: 484 km
apogee height: 504 km
right ascension of ascending node: 356.0462°
argument of perigee: 333.4431°
revolutions per day: 15.23785350
mean anomaly at epoch: 86.5117°
orbit number at epoch: 64873

The dashed part of the orbit path shows where the satellite is in the earth's shadow,  

DLR